STARLINK-1939 (46774 NORAD) Tracking and Keplerian Element Data

This shows tracking and keplerian element data for the satellite.

Feedback or suggestion? Click here.




ElementValue
Catalog46774
NameSTARLINK-1939
Epoch Orbit182
Epoch Day330.91667824
Epoch Year2020
RAAN2.3589
Inclination53.0562
Eccentricity0.0001157
Argument of Perigee68.5489
Mean Anonmoly325.7866
Mean Motion15.47198503
Decay Rate-0.01079312
L11 46774U 20074AM 20330.91667824 -.01079312 00000-0 -23068-1 0 9997
L22 46774 53.0562 2.3589 0001157 68.5489 325.7866 15.47198503 1823

Live tracking and technical data element details for STARLINK-1939 (NORAD 46774). STARLINK-1939 can be tracked NOW for your location showing map with azimuth and elevation plus other details from your city location.

Track the satellite on the map from your city or location and see movement details for azimuth, elevation, latitude, longitude, range, height, and movement on the map or in text.







IsCatalogInMostPopularTable: catalog: 46774, numindb: 6
Update: records affected: 1



GetName: 46774 STARLINK-1939

Hit Count: updated at: Thu, 26 Nov 2020 17:21:21 GMT